TIME,DELAY(SENSOR),PRES,OXYGEN,RAWTEMP,T(OPTODE),TCPHASE,FLUOR,BETA(BETA700),BETA(BETA412),BETA(BETA440),CDOM,C(CSC),ED(ED412.40),ED(ED444.00),ED(ED489.70),ED(ED554.30),LU(LU411.80),LU(LU443.40),LU(LU489.60),LU(LU554.10),COMP,TILTX,TILTY,CHECK
1334288654,5808,880.5700073242188000,41.3778991699218750,660.0490112304688000,4.6263599395751950,54.7886009216308600,53,100,85,79,83,15271,2147755748,2147422683,2148003620,2147869952,2147640466,2147067574,2148259620,2147203794,1544,4,14,64755
1334292250,5809,964.0000000000000000,45.3470687866210940,669.1262817382812000,4.3270530700683590,54.3170013427734400,53,100,88,79,84,15272,2147760841,2147421659,2148004955,2147872941,2147638884,2147065938,2148260141,2147202121,1104,4,14,41983
1334295850,5807,997.7199707031250000,46.1481513977050800,671.4432983398438000,4.2505068778991700,54.2295112609863300,53,101,91,79,83,15271,2147758985,2147421970,2148005641,2147872256,2147643574,2147066514,2148260452,2147203318,3499,4,14,1837
1334299450,5807,1014.2000122070312000,45.4258117675781250,670.7954711914062000,4.2719168663024900,54.3253707885742200,53,100,87,79,83,15272,2147758747,2147422683,2148006244,2147874166,2147644589,2147064274,2148258560,2147202560,3365,4,13,20333
1334303050,5808,1016.7399902343750000,45.1554985046386700,670.6121215820312000,4.2779769897460940,54.3603401184082000,53,100,89,79,83,15270,2147760164,2147418221,2148008356,2147874806,2147641572,2147066550,2148261622,2147200786,2591,4,14,50170
1334306650,5812,1015.3699951171875000,45.1632385253906250,670.7637939453125000,4.2729630470275880,54.3643913269043000,53,100,90,79,83,15272,2147761234,2147421339,2148004900,2147871296,2147642048,2147065545,2148258669,2147204068,3127,4,13,1619
1334310250,5808,1008.0999755859375000,45.7547492980957000,672.3402709960938000,4.2208580970764160,54.2989006042480500,53,100,88,79,84,15271,2147760320,2147420169,2148007442,2147873581,2147644480,2147068196,2148262272,2147201472,31,4,13,52982
1334313850,5806,1004.5200195312500000,46.1621284484863300,673.1234741210938000,4.1949601173400880,54.2475700378418000,52,134,89,79,83,15263,2147760877,2147420717,2148006948,2147873572,2147645293,2147066770,2148263844,2147202477,175,4,13,54789
1334317450,5811,1005.6300048828125000,46.9567489624023440,674.6486206054688000,4.1445159912109375,54.1555595397949200,53,101,88,79,84,15272,2147758354,2147419483,2148005824,2147874240,2147642678,2147064850,2148260589,2147204800,339,4,13,42049
1334321050,5808,1016.2999877929688000,46.8159217834472660,674.2288208007812000,4.1584029197692870,54.1673088073730500,53,100,87,80,82,15250,2147758985,2147419309,2148005622,2147870482,2147644361,2147059812,2148264329,2147201289,3303,4,13,34599
1334324650,5808,1008.4699707031250000,45.9941291809082000,673.0928955078125000,4.1959738731384280,54.2723083496093750,53,99,86,80,83,15259,2147760137,2147421430,2148007469,2147873929,2147644800,2147063643,2148262957,2147202633,553,4,13,19817
1334328250,5808,1010.8499755859375000,46.5633010864257800,674.3043823242188000,4.1559009552001950,54.2076988220214840,53,99,87,79,83,15259,2147759259,2147421522,2148006180,2147873453,2147644754,2147067821,2148266477,2147199232,6,4,13,57534
1334331850,5806,1000.8900146484375000,46.6351089477539060,675.1275024414062000,4.1286678314208980,54.2043190002441400,52,101,88,78,84,15254,2147761060,2147422509,2148004992,2147873188,2147642861,2147070619,2148259510,2147204324,150,4,13,33714
1334335450,5811,1013.5000000000000000,46.9286689758300800,675.5822753906250000,4.1136169433593750,54.1717491149902340,53,100,89,80,84,15258,2147758976,2147421549,2148005796,2147874249,2147643977,2147064347,2148261293,2147200082,99,5,13,3046
1334339050,5811,1006.4199829101562000,46.6873893737793000,675.4445800781250000,4.1181740760803220,54.2025184631347660,52,98,85,78,84,15258,2147761764,2147419446,2148007222,2147872411,2147643300,2147071076,2148260169,2147205696,3428,4,13,34042
1334342650,5810,1018.3099975585938000,46.9109611511230500,674.6010742187500000,4.1460838317871090,54.1612091064453100,52,98,90,79,84,15234,2147758171,2147420553,2148005659,2147872146,2147642285,2147062372,2148264484,2147202386,325,4,13,51942
1334346250,5808,1020.1599731445312000,46.3369598388671900,673.3571166992188000,4.1872348785400390,54.2243385314941400,53,97,84,80,83,15232,2147759808,2147419108,2148004086,2147872493,2147641737,2147067318,2148264246,2147205065,3299,4,13,27347
1334349850,5811,1014.0300292968750000,45.9809188842773440,673.4774780273438000,4.1832518577575680,54.2763404846191400,52,100,93,79,84,15230,2147758994,2147424384,2148005961,2147875410,2147643830,2147068406,2148261248,2147203492,256,4,13,44817
1334353450,5809,1016.9199829101562000,45.9743499755859400,674.4246215820312000,4.1519241333007810,54.2896308898925800,53,99,91,79,84,15231,2147762002,2147421531,2148007040,2147874870,2147645275,2147067666,2148264685,2147199926,183,4,13,1254
1334357050,5809,1019.4000244140625000,46.5030212402343750,674.3251953125000000,4.1552138328552250,54.2172889709472660,52,99,89,80,83,15227,2147759908,2147424155,2148007113,2147873938,2147644973,2147065060,2148262208,2147201709,3531,4,13,8977
1334360650,5808,1020.2500000000000000,46.1025009155273440,674.3690185546875000,4.1537671089172360,54.2695617675781250,52,101,90,78,83,15228,2147760950,2147423451,2148006308,2147872795,2147639570,2147062336,2148261092,2147201280,3522,4,13,41709
1334364250,5810,1010.8800048828125000,46.4067802429199200,675.3574218750000000,4.1210589408874510,54.2423782348632800,54,99,87,79,83,15229,2147760886,2147422893,2148006244,2147872969,2147644918,2147065563,2148262025,2147199268,364,4,13,22616
1334367850,5810,1030.4300537109375000,47.0578689575195300,675.1087036132812000,4.1292901039123535,54.1415214538574200,52,101,89,79,83,15230,2147759670,2147420132,2148004169,2147871725,2147645092,2147071817,2148264484,2147197001,3092,4,13,36471
1334371450,5813,1022.0000000000000000,45.5759201049804700,673.0838012695312000,4.1962738037109375,54.3287391662597660,53,98,89,79,83,15223,2147755200,2147419812,2148006244,2147875273,2147643858,2147068096,2148263177,2147203894,52,4,13,8732
1334375050,5809,1011.0200195312500000,45.9538803100585940,673.8801269531250000,4.1699371337890625,54.2891387939453100,53,100,87,79,82,15226,2147757696,2147423012,2148008128,2147873334,2147642989,2147063817,2148257088,2147204041,384,4,13,1455
1334378650,5809,1016.2100219726562000,46.6097183227539060,675.2354125976562000,4.1250991821289060,54.2065582275390600,54,99,90,80,84,15226,2147762148,2147421083,2148006171,2147872932,2147638665,2147066029,2148265280,2147203556,367,4,13,23899
1334382250,5809,1023.0700073242188000,46.5111808776855500,674.0977172851562000,4.1627388000488280,54.2106208801269500,53,98,92,79,84,15230,2147763318,2147420525,2148005522,2147873325,2147644992,2147062957,2148264786,2147201755,3427,4,13,37061
1334385850,5804,1018.2999877929688000,46.0601806640625000,673.8441772460938000,4.1711249351501465,54.2712211608886700,52,100,86,79,83,15225,2147760950,2147420891,2148006464,2147876918,2147645595,2147065709,2148263104,2147198866,3457,4,13,62304
1334389450,5813,1023.3099975585938000,46.4006996154785160,673.9066772460938000,4.1690578460693360,54.2247695922851560,51,98,89,79,84,15227,2147760731,2147422592,2148005312,2147872987,2147645696,2147062116,2148266276,2147202102,3363,4,13,3288
1334393050,5809,1010.5200195312500000,46.4018783569335940,674.8828125000000000,4.1367650032043460,54.2373504638671900,52,101,87,78,84,15226,2147761234,2147421604,2148002166,2147871533,2147641005,2147065645,2148261184,2147201261,186,4,13,23678
1334396650,5810,1015.8099975585938000,46.6094894409179700,675.2047729492188000,4.1261100769042970,54.2091484069824200,52,98,88,81,84,15224,2147760329,2147422820,2148006080,2147874459,2147643602,2147068955,2148261440,2147204809,3231,4,13,42241
1334400250,5807,1011.4400024414062000,46.7322311401367200,675.2698974609375000,4.1239547729492190,54.1961097717285160,53,101,90,78,84,15225,2147758034,2147422893,2148005860,2147874422,2147643053,2147063286,2148261787,2147201005,1299,4,13,50712
1334403850,5807,1019.7399902343750000,46.5736503601074200,675.7567138671875000,4.1078429222106930,54.2218208312988300,52,102,91,79,83,15225,2147759433,2147422884,2148007478,2147871469,2147644370,2147066523,2148260041,2147201225,71,4,13,36393
1334407450,5812,1018.9600219726562000,45.9746093750000000,675.2418823242188000,4.1248798370361330,54.2999916076660160,52,100,90,79,83,15224,2147760886,2147422793,2148004416,2147875218,2147644022,2147061814,2148263451,2147199049,115,4,13,35253
1334411050,5811,1020.6300048828125000,46.7184181213378900,676.3145141601562000,4.0893797874450680,54.2049598693847660,52,100,87,79,83,15223,2147761792,2147419968,2148007021,2147876461,2147643849,2147068278,2148271634,2147203008,435,4,13,15520
1334414650,5808,1024.0899658203125000,46.3246612548828100,675.2705078125000000,4.1239337921142580,54.2541694641113300,53,100,91,78,84,15220,2147761243,2147421622,2148005184,2147872146,2147644361,2147069723,2148263524,2147201142,168,4,13,48154
1334418250,5812,1025.5999755859375000,46.3279495239257800,674.5280761718750000,4.1484999656677250,54.2373886108398440,54,99,87,78,85,15223,2147761033,2147421686,2148004854,2147875099,2147643373,2147068489,2148260800,2147197220,3279,4,13,7758
1334421850,5807,1015.5300292968750000,46.5215988159179700,675.6015014648438000,4.1129798889160160,54.2289695739746100,52,101,87,80,83,15222,2147760374,2147423122,2148007652,2147874806,2147646226,2147064594,2148258057,2147201700,184,4,13,48189
1334425450,5810,1020.5100097656250000,46.8548507690429700,675.4738159179688000,4.1172080039978030,54.1766090393066400,53,97,86,79,83,15219,2147757833,2147422857,2148005193,2147874066,2147643062,2147066166,2148265097,2147204260,193,4,13,31956
1334429050,5810,1019.6300048828125000,46.3596191406250000,675.3389282226562000,4.1216721534729000,54.2496604919433600,52,98,89,81,85,15217,2147759808,2147421156,2148009152,2147874413,2147642486,2147067894,2148260845,2147195483,3588,4,13,13339
1334432650,5809,1035.3199462890625000,46.1603507995605500,673.3342285156250000,4.1879920959472660,54.2533493041992200,53,99,88,79,84,15217,2147758272,2147420626,2148007515,2147874249,2147643401,2147064786,2148264100,2147202724,3499,4,13,44055
1334433355,5808,1037.2199707031250000,45.8381881713867200,672.9904174804688000,4.1993618011474610,54.2909584045410160,53,103,88,80,83,15242,2147760109,2147423323,2148005778,2147874477,2147645056,2147067373,2148261046,2147204571,3433,4,13,27272
